Theta_e
351 336 333 331 324 325 334 340 341 341 342 345 339 333 330 332 335 339 337 335 333 329 324 323 330 333 336 336 337 338 339 336 328 326 325 328 329 331 332 331 334 342 329
352 335 332 330 324 325 327 331 337 341 341 345 341 334 331 332 338 338 335 333 330 328 324 323 326 331 335 337 338 338 338 334 329 326 326 326 330 332 333 332 340 343 329
351 338 333 330 324 326 330 336 338 340 341 344 344 337 332 332 337 336 332 329 328 327 326 324 325 329 334 338 337 337 334 330 330 327 327 336 337 333 334 334 333 332 330
351 343 336 331 325 326 330 336 338 339 343 344 345 340 335 333 336 334 330 327 327 328 328 326 326 328 330 336 332 331 331 331 329 328 328 333 338 339 336 334 334 334 333
350 346 340 331 324 325 327 336 338 340 344 345 346 343 337 335 335 334 331 329 328 328 329 330 331 329 328 328 329 330 330 328 330 329 334 334 336 342 339 336 336 335 335
346 350 334 331 325 324 325 330 336 338 344 346 347 346 341 337 336 336 332 331 329 329 330 332 337 339 338 334 331 332 334 332 332 332 336 335 337 340 340 338 335 336 336
343 351 334 333 327 323 325 327 330 334 338 343 345 345 344 340 337 337 334 332 330 328 329 331 334 336 337 339 339 338 337 336 334 335 332 334 336 336 334 335 330 331 333
343 349 334 334 333 325 323 323 324 326 329 333 338 341 341 341 339 339 335 333 329 327 328 329 331 334 336 337 335 332 330 329 327 330 331 333 338 337 335 333 329 327 325
345 346 347 340 335 332 328 326 326 325 324 325 327 331 336 337 335 332 330 329 328 327 327 327 328 330 332 332 333 334 333 332 331 330 329 329 332 335 335 333 331 328 326
346 346 347 347 345 342 335 330 329 330 330 329 327 326 325 325 325 324 325 325 326 326 326 326 327 327 329 330 330 330 331 332 332 334 331 329 328 330 332 332 330 326 326
346 346 346 344 346 343 344 343 338 330 331 332 332 333 332 333 339 337 333 329 327 326 326 327 327 327 326 326 324 323 323 325 332 332 331 330 328 327 328 329 327 323 324
345 346 346 345 345 344 341 347 348 346 342 341 342 344 341 342 341 340 343 343 341 336 330 326 326 325 325 326 334 332 333 331 327 330 329 329 329 328 328 328 328 323 323
341 347 347 348 347 346 346 346 343 345 346 346 345 346 345 343 341 341 340 340 339 338 337 335 329 326 331 334 334 335 337 339 336 328 327 328 328 328 328 328 327 321 318
338 345 348 349 350 348 346 347 346 343 347 343 346 347 344 346 344 340 340 338 339 340 340 341 339 340 340 341 338 336 334 335 335 334 329 326 326 327 326 326 322 317 314
340 343 344 348 343 334 331 332 344 343 342 339 339 342 342 343 343 342 339 335 335 335 336 336 337 337 337 337 338 337 337 336 336 336 336 334 334 334 335 336 337 337 336
336 334 338 339 336 332 332 333 341 337 335 336 332 329 343 343 341 341 339 339 339 337 336 335 335 336 337 337 336 337 337 337 337 337 337 339 339 340 342 342 339 340 339
334 334 333 335 323 324 328 328 326 328 338 338 336 341 339 337 339 338 340 339 338 339 340 339 337 337 338 338 338 337 337 337 337 337 341 342 342 337 343 343 339 337 336
333 335 335 334 335 338 338 338 338 339 340 339 335 337 338 337 336 338 338 338 338 338 339 337 339 340 339 339 341 341 342 340 341 338 342 340 335 342 343 342 341 340 339
333 333 333 334 333 332 332 331 332 332 335 336 337 337 337 337 337 337 335 337 339 338 338 336 336 335 335 335 336 338 338 339 340 342 342 344 343 340 344 341 341 341 338
331 331 331 330 326 329 328 326 325 325 327 329 331 332 335 332 332 334 335 334 337 338 337 336 336 334 335 334 334 336 336 338 337 338 338 338 340 343 342 343 339 337 339
330 330 328 328 325 323 324 323 322 321 322 322 323 323 324 326 328 327 329 331 333 335 337 336 336 335 335 334 334 334 333 334 335 336 335 339 340 339 338 337 334 333 340
329 328 327 326 327 326 322 322 321 321 321 321 321 320 323 328 325 326 326 328 329 333 333 333 335 335 334 335 334 334 335 334 334 337 336 335 334 334 334 332 332 333 332
330 329 327 326 325 325 323 321 320 320 320 320 320 321 322 321 324 325 326 327 328 329 329 328 327 329 334 332 333 337 335 334 334 333 336 337 334 334 333 333 333 332 329
325 328 326 326 325 322 323 321 321 320 320 320 320 321 320 321 322 322 323 325 327 327 328 330 330 328 328 330 331 333 335 332 334 332 332 331 332 334 335 334 333 330 329
323 323 323 324 325 325 324 324 322 321 321 320 320 319 320 321 321 323 323 324 324 327 327 327 327 328 328 329 331 331 332 333 333 333 333 332 331 330 329 330 333 334 331
323 322 322 322 323 324 323 323 322 321 321 320 319 319 318 318 319 320 321 321 321 322 325 324 325 325 326 328 328 329 330 331 331 333 332 333 331 330 330 329 330 330 329
Wind_Speed
8 6 12 12 13 14 14 14 12 11 12 14 14 15 16 15 14 14 12 12 12 12 13 16 18 18 15 12 11 11 13 11 12 12 9 8 8 9 7 7 9 2 2
10 10 12 11 12 13 13 13 14 13 12 15 15 15 16 15 14 12 12 12 12 12 13 15 17 17 14 11 9 10 12 11 11 10 7 7 7 8 6 6 7 10 4
10 13 12 12 11 11 11 11 12 12 13 17 17 15 15 15 14 11 10 11 12 12 13 15 16 16 13 11 10 10 10 9 11 11 8 7 7 7 7 7 8 6 6
9 13 11 11 11 11 11 10 10 10 13 19 19 16 16 16 14 11 11 11 13 13 14 14 15 15 15 13 12 10 10 10 12 12 11 8 13 14 11 11 10 9 9
10 11 10 10 11 11 11 11 10 10 13 17 18 16 15 15 14 12 12 12 14 14 14 14 13 14 16 16 15 14 14 13 15 15 12 12 10 16 15 13 14 14 12
8 8 10 10 10 10 10 10 9 9 11 15 16 15 15 15 15 13 13 13 14 14 14 15 15 15 15 17 18 18 17 16 16 15 15 16 13 12 14 18 16 16 16
9 7 10 10 9 9 10 10 10 10 11 14 15 15 14 14 14 13 13 15 15 16 16 17 17 18 18 19 20 20 20 20 20 16 18 19 18 22 25 24 19 17 18
10 8 9 10 9 9 8 9 9 10 11 12 13 14 13 14 15 16 17 17 17 18 18 18 19 19 20 21 21 22 22 23 23 21 20 22 23 26 29 27 23 21 20
11 7 9 10 10 9 9 9 8 9 10 11 12 14 15 16 17 18 18 18 19 20 20 21 21 22 23 23 24 24 25 25 26 22 22 24 25 26 30 30 27 24 22
8 7 6 7 6 7 8 10 10 11 11 12 13 13 14 15 16 16 17 19 19 20 22 23 23 24 25 25 26 27 28 28 30 25 26 27 29 31 32 33 30 27 26
6 5 5 6 6 3 9 9 10 14 14 13 14 14 15 14 13 13 15 17 20 22 24 25 26 26 26 27 27 28 28 31 26 26 27 29 32 34 37 36 34 29 28
11 3 0 3 4 3 5 10 6 9 10 11 11 13 13 13 13 13 12 19 23 23 25 27 28 27 28 29 23 24 25 25 27 28 28 28 31 34 35 34 34 32 30
14 18 2 4 4 4 4 7 8 10 11 9 11 13 15 14 16 16 17 20 20 21 19 23 26 29 29 26 24 23 25 23 21 26 28 30 33 35 36 37 39 35 33
18 15 7 4 4 4 5 6 11 9 8 10 11 15 20 17 20 21 21 22 21 20 20 19 22 23 23 23 23 24 25 28 27 24 24 29 31 33 35 39 38 35 35
18 14 14 9 1 11 18 16 10 7 11 9 15 19 26 19 22 22 26 24 22 22 24 24 24 26 27 27 27 28 28 29 29 29 28 28 31 33 32 34 31 30 31
21 21 18 14 12 14 13 16 12 20 16 10 19 20 22 21 20 21 22 22 22 21 22 24 26 26 27 28 28 28 30 30 32 31 33 34 33 35 33 32 31 31 32
20 22 23 20 23 21 19 17 18 15 8 12 24 20 25 20 21 23 22 24 25 26 25 24 26 28 29 31 29 28 29 30 31 32 34 30 32 42 30 24 30 27 35
18 20 19 18 18 17 13 12 11 12 11 10 10 12 17 20 21 25 27 27 29 32 33 32 27 26 27 27 25 29 25 29 30 31 34 39 39 27 29 26 28 26 27
17 17 16 16 15 15 14 15 15 16 16 15 14 16 17 19 20 24 28 28 27 29 26 27 28 26 31 34 32 32 35 34 37 32 31 27 32 31 30 27 25 26 31
14 15 16 16 15 14 15 15 16 16 14 15 16 18 20 21 23 25 26 28 24 28 28 29 30 25 24 26 30 32 29 30 32 32 35 41 33 32 27 20 25 26 24
12 14 15 15 18 18 17 19 20 20 18 16 16 17 22 22 21 26 27 28 25 23 24 21 25 25 26 23 25 26 31 33 37 34 35 34 35 38 35 30 23 23 23
10 11 13 14 14 16 17 18 19 19 19 19 19 22 20 18 24 24 26 27 28 24 21 22 23 27 25 23 27 26 25 25 31 35 32 37 43 43 52 52 51 45 37
9 10 11 13 14 15 17 17 20 19 20 20 22 21 23 26 24 22 22 23 26 25 24 20 20 22 26 23 22 25 9 13 15 21 26 29 30 33 39 43 34 36 18
9 6 9 11 13 16 16 19 20 22 24 24 24 25 29 23 21 21 23 22 22 25 25 19 20 19 20 25 24 24 35 24 13 14 21 20 24 26 26 26 27 17 11
9 10 10 11 14 15 17 20 24 26 24 25 27 31 27 25 23 22 19 18 21 21 22 22 19 19 19 20 22 25 30 29 30 30 24 17 15 16 21 14 10 11 13
14 15 17 16 19 15 20 22 23 27 26 28 30 30 28 25 25 27 28 24 24 24 23 20 19 18 18 19 20 22 25 26 29 27 27 26 27 20 21 15 11 10 10
Wind_Direction
137 151 158 155 156 169 177 179 188 191 186 183 177 175 171 173 172 168 169 171 171 173 174 173 174 174 175 173 176 185 191 192 185 184 181 170 167 160 146 126 97 42 8
136 153 154 153 153 162 173 182 192 202 199 191 187 185 179 180 178 177 179 179 180 182 180 181 183 184 186 189 195 197 196 197 196 195 200 197 196 187 177 150 171 180 233
133 154 154 152 150 156 166 178 193 203 202 193 193 191 187 187 186 187 189 189 186 187 187 188 191 194 196 198 202 198 201 210 209 209 215 211 239 228 228 210 209 207 220
128 143 159 152 149 155 165 178 193 203 195 191 193 197 196 196 195 198 202 202 196 195 195 196 200 204 206 207 212 216 221 226 226 228 232 235 235 247 261 245 238 235 240
122 134 171 155 150 155 167 178 190 202 201 194 198 205 205 206 206 209 216 217 208 203 204 205 206 211 217 223 226 230 235 236 238 240 235 236 251 246 254 259 252 248 251
110 149 159 160 157 159 167 183 193 200 201 204 210 215 216 216 215 222 228 230 224 218 217 217 217 221 225 228 230 233 238 243 246 247 242 238 249 244 246 257 257 255 255
110 157 164 163 160 164 172 185 197 204 211 218 224 227 227 228 225 235 240 239 234 229 228 229 232 234 237 237 239 242 245 249 249 246 243 244 244 252 255 254 252 253 259
115 135 158 167 171 169 175 181 192 203 212 219 227 232 230 235 235 238 242 239 237 235 236 239 239 241 243 246 248 250 250 251 253 251 244 244 245 247 251 256 255 256 257
102 122 146 167 180 185 188 191 195 201 207 217 222 226 230 232 238 243 244 241 239 239 240 241 242 243 244 247 252 254 256 256 255 249 248 248 251 255 260 262 259 259 262
104 104 123 155 183 197 213 205 211 215 216 217 220 226 230 234 240 245 248 246 246 246 247 247 247 248 250 252 252 254 254 255 256 255 251 248 251 252 253 259 262 260 262
76 94 123 144 170 179 222 249 257 237 231 233 233 233 237 238 247 264 270 262 260 254 253 254 254 254 255 256 257 259 261 259 254 254 252 248 250 255 259 262 264 260 261
31 35 138 148 167 174 200 258 286 269 265 257 249 256 270 246 237 236 235 245 259 266 262 257 256 257 257 256 256 266 266 259 254 251 251 252 253 255 258 260 267 261 258
47 348 199 177 161 160 204 236 244 240 242 226 245 249 256 250 250 250 251 259 269 280 268 265 263 260 253 250 251 252 254 251 252 251 251 252 254 253 255 263 267 264 259
66 346 49 86 132 175 180 308 249 231 259 237 279 255 258 251 256 243 238 230 238 246 257 252 250 250 252 250 251 250 250 250 251 254 256 252 254 256 261 267 267 263 261
54 55 56 76 114 283 288 288 307 288 273 256 280 273 279 253 258 251 260 257 251 251 254 256 254 253 251 247 248 248 250 250 252 256 254 255 255 256 260 269 263 263 264
54 51 54 43 35 13 336 305 287 293 276 257 224 262 259 255 257 262 269 275 272 262 261 261 259 257 258 256 251 252 252 250 249 247 252 253 265 267 266 264 266 264 263
56 56 52 50 57 48 43 29 12 9 344 244 242 226 238 259 270 266 268 269 272 274 262 260 262 256 254 253 253 252 252 255 252 249 251 246 250 260 251 261 264 276 261
58 53 54 52 46 44 39 21 1 344 338 337 324 304 288 275 276 276 280 271 266 263 257 259 253 259 256 265 265 258 252 249 255 250 250 250 252 250 265 265 266 268 279
56 54 49 42 36 30 18 8 358 343 335 331 324 323 315 306 302 299 293 288 272 270 270 275 273 269 264 260 259 262 256 254 250 253 250 246 248 248 249 249 271 272 276
49 47 40 35 40 24 9 2 352 341 329 324 323 315 314 312 306 301 295 302 296 276 273 276 273 268 261 263 263 258 261 262 260 254 253 249 242 240 241 244 253 271 268
42 33 28 21 20 24 2 1 355 349 340 330 322 313 309 313 307 307 303 304 304 301 278 266 266 267 272 264 262 262 255 257 258 254 250 239 230 233 245 237 253 285 270
31 24 18 16 6 9 11 360 355 349 340 333 326 322 324 315 319 313 311 304 306 304 294 287 278 280 268 264 260 259 261 269 252 252 249 250 250 253 255 258 262 273 270
358 358 360 0 6 1 2 356 353 350 342 335 332 327 319 318 315 308 308 305 298 298 294 294 293 279 279 280 261 260 270 249 267 249 252 249 260 261 263 258 243 231 253
358 355 5 354 356 356 356 354 356 347 342 334 328 323 323 324 319 312 307 302 299 293 299 292 297 296 289 282 274 267 243 249 275 284 262 272 258 255 265 222 218 233 228
359 7 349 354 346 350 356 352 348 342 338 335 329 326 330 321 324 313 302 294 298 307 295 295 293 289 290 287 280 283 281 283 274 269 271 244 247 229 253 270 181 211 175
354 348 348 348 346 348 355 350 346 340 339 338 332 332 326 326 312 311 303 305 288 299 310 304 300 302 298 296 292 287 281 276 281 267 264 239 228 212 216 200 196 173 164